Temp
13 13 13 13 13 14 14 15 15 15 15 15 15 15 16 16 17 17 17 17 17 18 18 18 18 18 19 18 17 19 19 19 20 20 19 19 20 19 19 18 18 17 17 17 17 17 16
13 13 13 13 13 13 14 14 15 15 15 16 15 15 16 17 16 17 17 17 17 17 18 18 18 18 18 18 19 19 20 20 19 19 19 19 19 18 17 17 18 16 16 16 17 17 17
12 12 13 13 13 13 13 13 14 14 15 15 16 15 15 16 17 17 17 17 17 18 18 18 18 18 17 17 19 19 19 19 19 19 18 19 19 20 17 17 15 15 17 17 17 17 17
11 11 12 12 13 13 13 13 14 13 14 15 15 15 15 16 17 17 17 18 18 18 18 18 18 18 16 19 19 19 19 19 19 19 19 19 19 16 17 15 15 16 16 17 17 16 16
12 11 11 11 11 12 13 13 13 13 14 15 15 16 16 16 17 17 18 18 18 18 18 18 18 18 17 19 19 19 19 19 19 19 19 19 18 15 17 15 15 15 16 16 17 15 16
12 12 12 11 11 11 11 11 12 13 13 14 15 16 17 17 17 18 18 19 18 18 18 18 17 18 17 18 18 18 18 19 18 18 19 18 14 14 13 14 15 16 16 16 16 16 15
11 11 12 12 12 11 11 11 11 11 12 13 14 15 17 17 17 18 19 18 16 16 17 16 17 17 18 18 18 17 18 18 18 18 17 16 16 15 15 14 16 16 16 17 16 15 15
9 9 10 11 11 12 12 11 11 11 11 12 13 15 16 17 18 17 17 15 15 14 15 16 16 16 17 17 18 17 17 18 18 17 16 16 15 16 15 15 16 16 17 16 15 15 14
8 8 9 9 10 11 11 11 11 12 11 11 11 13 15 16 17 17 15 14 14 14 15 16 16 17 17 17 17 16 16 17 18 16 15 16 17 14 16 15 16 15 15 15 16 14 13
7 8 8 8 8 9 10 11 11 11 12 11 11 11 13 15 16 15 14 14 14 14 14 16 16 17 16 16 18 16 16 17 17 16 14 16 14 15 15 16 15 16 14 14 14 13 14
7 7 7 8 8 9 9 9 10 10 11 11 11 11 11 12 14 14 15 15 14 14 13 17 16 17 16 16 16 16 16 17 16 15 15 16 13 14 15 16 14 15 13 13 13 12 12
6 6 6 7 7 8 8 9 9 10 10 11 11 12 11 12 12 15 14 15 14 13 14 17 15 15 16 16 16 15 16 15 14 15 14 14 14 15 15 13 14 11 12 10 9 9 10
6 6 6 6 6 7 8 8 8 8 9 10 10 11 11 11 13 15 14 13 13 11 18 17 15 14 15 15 15 15 15 15 14 15 14 14 14 13 14 13 13 13 12 12 12 10 13
5 5 5 5 6 6 7 7 7 8 8 8 10 11 11 13 13 13 14 13 13 15 15 16 15 14 15 14 15 14 14 14 13 14 10 13 14 12 12 14 12 11 13 11 15 12 12
5 5 5 5 5 6 6 6 7 7 7 8 8 10 11 14 13 12 12 11 12 14 17 14 16 15 14 15 15 14 12 13 13 12 17 12 15 12 12 12 13 12 12 12 10 8 8
5 5 5 5 5 5 5 5 6 7 7 7 7 9 10 13 14 11 12 15 13 15 15 15 16 15 14 13 14 13 12 14 15 12 14 14 14 12 12 12 12 12 11 12 10 13 13
5 5 5 5 5 4 4 5 5 6 7 7 8 9 12 11 11 11 11 9 13 14 16 15 16 16 14 13 13 12 14 14 13 11 13 12 14 11 12 11 11 11 11 10 10 10 11
4 4 5 4 5 4 4 4 5 5 6 7 8 10 10 10 10 9 11 10 13 15 14 14 15 15 14 13 13 12 14 14 12 12 13 12 11 9 11 11 10 11 11 11 11 12 6
4 4 4 4 4 4 4 4 4 5 5 6 7 9 10 9 10 10 9 12 13 13 13 14 13 14 14 14 15 13 13 12 11 12 12 11 11 12 13 11 10 10 9 10 8 8 7
4 4 4 4 4 4 4 4 4 4 5 5 7 8 9 7 9 10 12 13 13 12 15 13 14 13 13 13 13 14 13 12 11 12 12 13 10 13 15 15 9 10 9 9 11 8 9
4 4 4 4 4 4 4 4 4 4 4 5 6 7 8 9 9 9 11 13 14 14 12 13 12 13 13 14 13 13 11 10 11 12 11 11 12 9 10 11 10 10 10 9 11 13 11
4 4 3 4 4 4 4 4 4 4 4 4 5 6 5 6 7 8 8 9 13 13 12 12 12 12 13 16 16 14 11 11 12 9 9 8 11 9 11 10 9 9 9 10 11 12 12
3 3 3 3 4 4 4 4 4 4 3 4 6 5 4 6 6 7 8 9 12 13 13 15 13 14 12 14 14 10 11 11 12 9 9 8 8 9 10 9 9 9 11 10 12 9 12
3 3 3 3 3 3 3 4 4 4 4 3 4 4 3 5 6 7 7 7 7 9 13 13 12 13 13 9 10 10 9 7 7 6 8 7 9 8 7 9 11 13 11 12 12 13 10
3 3 3 4 3 3 3 3 4 4 4 4 3 3 2 5 6 6 7 7 8 7 8 13 12 12 10 11 10 9 9 10 8 5 7 6 8 8 10 10 10 13 9 9 9 11 10
3 3 3 3 3 3 3 3 3 3 4 4 3 3 3 3 5 7 7 7 7 6 7 10 8 8 11 10 10 11 11 10 8 6 5 7 8 10 9 11 11 11 9 8 9 9 10
3 3 3 3 3 3 3 3 3 3 3 4 3 3 3 3 4 5 6 6 8 7 7 7 8 8 9 10 10 10 11 9 9 7 6 7 7 11 11 11 11 10 7 7 12 13 6
3 3 3 3 3 3 3 3 3 3 3 3 3 3 3 3 4 6 6 6 6 6 6 7 8 7 7 10 12 9 10 8 8 7 6 9 9 10 10 11 12 6 7 11 11 5 5
3 3 3 3 3 3 3 3 3 3 3 3 3 3 3 3 4 5 5 6 6 8 5 4 6 7 9 10 7 8 8 6 7 9 5 9 9 9 11 12 8 8 9 6 5 4 3
Height
854 852 849 847 844 841 838 834 830 827 823 820 816 812 808 806 805 805 804 802 802 802 802 801 800 799 799 801 797 792 792 791 790 790 791 793 795 800 808 810 810 814 816 815 815 816 817
856 854 851 848 846 843 840 837 833 829 824 820 817 813 808 805 804 803 803 802 801 801 801 800 800 799 800 805 792 791 791 791 790 790 791 793 795 797 807 811 812 816 818 818 816 816 817
857 855 853 850 847 844 841 838 834 831 827 822 818 814 810 805 803 802 801 801 800 800 800 799 799 798 798 796 791 791 791 791 791 790 791 792 793 796 803 811 814 816 819 818 818 817 818
858 856 854 851 848 845 842 839 835 831 827 824 819 814 810 806 802 800 799 799 800 799 798 798 797 798 796 789 789 789 790 791 791 791 792 793 793 798 804 811 816 820 823 828 816 817 817
859 857 855 852 849 846 843 839 836 832 828 823 819 815 810 806 802 799 797 797 798 798 797 796 797 796 796 789 788 788 788 789 790 792 792 793 795 805 808 818 828 829 830 829 818 818 818
858 857 854 851 849 847 843 840 836 832 828 823 819 814 810 805 801 798 796 795 795 795 796 796 796 799 790 788 786 786 787 788 789 791 794 796 805 815 821 823 836 826 828 824 822 817 820
858 856 852 849 848 845 842 839 836 832 828 824 819 814 809 804 800 797 795 794 798 798 793 790 788 786 784 785 786 786 786 787 789 792 803 803 812 819 814 815 811 816 820 818 815 816 819
860 856 852 849 845 842 840 838 835 830 827 823 819 813 808 803 799 796 795 794 795 798 796 782 784 784 782 783 787 786 786 789 791 800 801 809 815 806 809 811 812 813 816 819 817 818 820
861 857 853 847 843 840 838 835 832 829 825 821 818 813 808 803 798 796 795 796 795 796 798 783 779 780 780 782 783 786 785 785 791 801 804 808 801 805 806 812 815 815 818 817 817 821 824
861 857 852 848 844 839 835 832 830 826 822 819 816 812 807 802 800 795 794 794 794 795 808 786 781 776 778 779 782 780 782 784 791 798 804 802 803 805 807 808 813 815 813 816 819 824 828
861 857 852 848 844 839 835 830 826 823 820 816 814 811 807 805 799 794 793 792 793 795 837 778 779 774 775 780 781 782 781 782 792 796 800 800 806 806 807 804 810 810 815 819 823 832 834
860 856 851 847 843 839 834 830 824 820 817 814 811 808 805 801 798 792 790 790 794 815 820 778 776 779 779 779 779 780 781 782 788 794 799 801 801 801 802 809 809 820 823 831 843 844 846
859 855 850 846 841 837 833 829 824 819 813 810 807 803 802 800 795 790 790 790 813 827 772 774 776 778 777 782 781 780 784 789 793 804 803 802 802 802 802 812 813 816 824 836 838 850 822
859 854 849 844 840 836 831 827 823 819 813 807 801 796 792 791 793 792 788 798 811 783 777 768 770 774 779 777 779 782 786 788 788 787 815 806 807 802 801 800 807 819 816 829 822 835 828
856 852 847 843 839 835 830 825 821 817 812 806 796 789 784 780 784 790 790 805 788 777 760 771 772 774 777 773 774 780 787 782 773 779 781 804 793 799 799 800 802 814 817 815 834 851 857
852 848 844 841 838 833 829 824 819 814 810 805 796 786 776 774 777 788 789 769 770 759 758 763 767 765 772 774 777 780 781 764 761 768 766 777 792 800 802 800 804 804 809 819 831 820 816
850 846 842 838 835 831 827 822 818 812 808 802 792 780 767 769 774 784 780 779 761 753 751 757 758 759 764 769 769 776 765 757 757 770 768 777 778 805 801 804 801 809 809 813 815 820 821
849 844 840 835 832 829 824 820 815 811 806 799 793 776 767 766 775 770 765 761 750 747 753 752 751 750 758 760 765 768 760 753 753 759 767 772 785 809 794 791 794 794 796 800 807 807 845
846 842 838 834 830 826 822 818 813 810 808 803 789 777 767 769 763 761 758 749 744 744 746 749 749 746 746 752 756 756 753 751 753 753 758 767 780 791 784 795 796 794 795 795 806 814 827
842 839 834 831 827 823 820 816 812 809 805 802 789 775 766 766 756 753 744 739 740 738 732 734 737 742 746 748 748 746 752 752 753 752 753 754 771 759 757 757 779 789 788 790 783 813 801
837 833 830 826 822 819 816 813 810 807 804 802 789 774 765 757 756 755 749 732 729 733 735 730 735 737 738 745 747 746 753 756 756 754 756 761 761 771 769 765 770 770 774 784 775 761 774
831 827 824 820 817 814 812 809 806 805 800 797 788 779 773 767 761 756 749 740 726 721 728 728 724 730 730 723 723 736 747 750 745 761 762 766 759 769 764 770 775 773 773 770 766 757 755
823 820 817 814 810 807 805 803 801 799 797 790 783 779 775 766 760 758 747 736 723 723 716 711 715 715 728 723 725 735 734 733 734 748 759 764 767 773 767 772 773 772 745 757 743 753 744
815 812 809 805 803 800 797 796 795 794 793 789 785 781 773 762 759 753 746 745 741 732 716 712 712 713 715 724 731 734 740 748 752 756 751 759 758 766 782 772 757 725 729 729 730 726 739
804 802 799 796 793 792 790 788 787 786 785 782 779 780 774 756 755 747 742 738 735 732 725 708 707 706 712 719 733 747 744 742 749 762 755 757 752 763 756 760 740 720 738 738 738 722 720
793 790 788 785 783 782 781 779 778 777 777 776 772 772 769 758 746 742 739 737 734 731 724 709 709 707 706 717 728 726 730 736 745 755 757 754 750 742 759 742 739 720 729 732 731 734 708
781 778 776 774 773 772 771 769 768 767 767 767 764 764 763 752 738 743 736 731 722 727 722 716 710 712 703 709 718 722 717 725 731 740 754 755 754 733 734 730 722 716 726 733 724 706 714
767 765 763 762 761 760 760 759 758 757 757 758 753 755 754 749 730 730 728 727 725 725 726 720 711 704 706 705 699 713 710 720 726 729 737 724 733 733 734 729 709 720 729 718 702 714 716
753 752 750 750 749 749 749 748 748 747 748 749 744 743 743 739 723 718 716 716 712 710 717 723 712 701 684 689 703 702 705 721 715 716 733 715 706 712 707 695 703 699 696 704 708 712 718
Wind_Speed
20 20 21 21 22 23 24 23 23 23 23 24 23 19 12 8 7 8 7 6 5 4 3 5 4 2 1 1 6 3 5 3 1 3 2 2 2 4 4 4 2 3 4 2 2 3 3
20 20 21 22 22 22 23 24 24 23 22 22 24 23 18 8 8 7 8 7 6 5 4 4 3 2 2 3 2 3 2 2 1 4 3 3 4 4 5 3 2 3 3 3 2 3 3
19 20 21 21 22 23 23 23 24 24 24 23 23 24 21 13 11 6 7 9 7 6 5 4 3 2 3 9 3 3 1 1 2 3 3 3 6 2 4 4 4 5 4 1 2 2 2
21 20 21 22 22 22 23 24 25 24 23 24 24 24 23 19 12 8 7 7 8 7 7 5 3 2 6 4 4 1 1 2 2 4 4 4 7 7 4 4 5 4 4 2 2 5 1
24 24 23 22 22 22 23 24 25 25 25 23 23 23 23 21 15 10 7 6 8 9 7 6 3 3 7 3 3 3 2 4 3 4 5 6 4 4 3 5 3 4 3 4 3 6 3
20 22 24 25 25 24 24 24 25 26 26 25 24 23 23 24 20 10 7 7 6 6 2 3 1 2 2 4 3 3 4 3 3 4 3 5 5 4 3 3 5 6 4 4 4 4 4
20 21 21 21 24 26 26 25 26 27 27 27 26 25 24 23 21 10 5 1 4 3 4 8 4 3 1 2 2 1 3 5 3 4 4 2 3 6 10 6 3 4 4 4 3 2 3
26 24 22 22 22 23 25 27 27 27 28 29 28 27 25 24 17 6 4 2 2 1 6 7 3 4 3 3 2 3 4 5 5 5 5 4 6 5 6 4 4 3 4 5 2 1 1
27 27 27 26 23 23 24 25 26 28 29 29 30 29 27 24 8 3 5 1 1 1 2 5 5 4 4 7 5 6 6 4 3 6 6 6 3 7 5 3 4 4 5 4 4 2 2
28 27 27 28 29 27 25 25 25 26 28 30 30 29 29 26 3 6 2 1 1 1 3 5 5 4 4 4 2 3 3 3 2 10 7 5 4 6 4 5 6 4 3 4 3 3 4
27 28 29 30 28 30 30 28 26 27 28 28 29 30 29 22 13 3 1 1 1 1 3 2 3 3 3 5 6 0 1 2 6 6 6 5 8 5 4 4 6 4 3 3 2 3 3
27 28 28 29 30 30 30 31 31 27 26 28 28 28 30 21 12 7 3 4 2 5 7 3 4 5 5 2 3 4 3 4 4 4 3 2 0 3 3 3 3 6 5 6 4 3 1
27 28 29 30 30 30 30 31 30 32 30 27 28 28 26 26 7 5 6 3 4 4 2 6 6 5 4 6 4 5 6 5 6 5 5 1 3 2 3 5 3 3 4 2 4 2 5
28 28 29 31 31 30 30 30 31 31 32 31 28 27 29 23 18 11 7 4 6 5 7 2 4 4 7 8 4 5 6 5 5 4 3 7 5 8 5 4 7 6 6 5 6 3 4
28 27 29 30 31 31 30 29 30 32 32 35 34 24 16 17 16 17 3 4 9 8 4 8 2 3 5 5 6 4 7 6 10 12 9 6 4 2 2 2 3 5 5 3 6 3 3
29 29 29 30 31 31 31 30 30 31 32 33 25 14 18 24 16 9 2 13 7 6 7 5 9 7 8 7 7 8 9 5 6 9 1 6 3 1 1 2 2 3 5 3 2 3 5
29 29 29 29 31 31 31 30 30 31 32 34 12 3 5 12 22 2 7 8 8 6 5 8 8 5 7 7 8 5 5 3 5 6 3 5 3 0 2 8 9 4 3 2 2 4 5
30 30 30 30 31 32 32 30 30 30 32 20 7 4 4 24 4 3 14 8 8 5 2 6 3 7 9 8 8 7 10 6 8 10 10 7 5 5 7 1 3 3 6 7 4 5 1
30 31 31 31 29 31 31 30 29 28 27 21 3 4 6 8 6 8 4 7 9 7 8 8 9 8 5 9 4 8 7 1 8 10 10 9 3 3 1 1 2 5 6 4 5 3 7
29 28 29 31 31 28 30 29 29 27 27 20 3 3 2 2 6 6 14 14 12 5 13 7 6 5 4 6 5 5 7 0 4 5 3 6 4 7 9 4 6 6 7 8 6 4 5
34 32 32 29 28 30 27 28 28 27 25 19 4 3 2 2 6 14 15 7 20 14 6 11 4 8 8 7 4 6 2 3 2 5 4 4 7 4 4 3 4 6 6 12 16 16 10
37 35 34 33 30 28 29 26 27 25 24 12 4 3 4 4 9 14 15 21 26 13 10 6 8 10 11 17 13 10 7 5 6 4 6 3 3 4 3 3 6 5 8 11 18 18 19
37 36 36 35 33 30 28 27 26 24 22 7 8 6 2 4 7 7 5 13 21 11 8 15 17 11 8 14 2 2 1 2 4 11 10 8 7 4 4 3 2 5 19 17 14 7 15
42 40 38 36 36 33 31 27 25 22 22 22 17 13 3 9 7 7 8 16 18 17 23 6 4 10 5 12 9 7 9 8 5 4 2 7 7 3 3 2 6 5 2 5 18 14 12
39 39 38 37 35 35 32 29 26 25 23 26 23 7 3 5 6 14 17 13 17 17 22 22 9 6 13 5 4 1 1 0 3 3 2 2 5 3 5 6 7 7 5 7 8 8 18
42 40 38 37 36 35 34 31 28 26 24 26 25 20 6 4 8 17 12 9 6 6 11 5 0 4 5 4 3 10 8 6 7 2 2 0 3 2 3 5 7 6 3 4 4 6 7
44 43 40 38 37 36 33 33 31 28 26 26 27 21 11 5 8 9 9 10 3 3 5 4 4 3 2 5 4 5 7 4 6 10 7 4 1 11 7 5 6 6 7 6 4 7 4
44 43 39 39 37 35 33 32 31 29 27 26 27 20 12 6 10 10 7 9 6 4 5 5 3 3 3 6 7 5 5 8 4 5 7 11 10 5 3 5 14 6 5 9 4 2 5
43 41 40 38 37 34 33 32 31 29 27 26 29 27 19 7 7 9 20 30 32 26 5 4 7 8 5 5 3 3 3 3 6 6 1 5 7 6 10 7 1 16 2 3 3 5 5
Wind_Direction
23 21 20 19 17 16 14 16 18 18 18 18 15 10 358 333 312 292 271 254 241 249 276 314 316 306 197 349 254 299 326 339 222 172 159 147 127 119 146 132 84 101 178 123 80 120 115
16 14 13 12 11 13 12 11 10 10 13 14 11 9 3 346 322 294 278 263 255 237 286 302 298 290 166 247 187 324 320 356 36 180 155 162 195 163 111 99 135 113 109 115 186 156 148
10 8 6 6 6 5 7 8 8 6 5 6 7 7 3 355 339 305 280 270 245 251 281 288 276 235 176 235 196 345 336 93 32 181 147 173 141 88 127 102 160 132 95 19 214 184 182
4 2 360 358 359 360 1 1 1 3 3 0 0 1 2 356 342 314 287 266 252 271 272 271 272 244 240 198 207 256 150 152 94 111 119 110 125 103 82 114 37 74 63 141 233 154 142
1 358 356 354 352 353 354 354 354 355 355 356 355 354 356 354 340 319 292 263 265 278 268 254 247 170 272 199 201 190 151 162 134 114 97 112 71 88 73 99 35 5 215 207 292 200 138
358 351 351 351 349 348 348 348 348 348 349 349 349 349 350 350 343 321 298 289 263 272 241 206 233 30 226 229 174 176 161 147 133 119 80 49 57 84 45 104 208 200 218 227 230 227 178
351 344 344 341 342 342 342 342 343 343 342 343 344 344 344 346 341 322 313 302 13 315 212 197 202 220 202 164 189 152 153 129 105 70 161 20 103 207 210 190 153 143 187 215 223 177 199
358 349 345 340 338 334 333 335 336 338 339 338 339 340 341 345 341 330 332 75 130 170 303 213 230 271 227 172 153 223 181 148 156 177 128 44 229 202 127 156 157 161 171 240 282 134 179
354 350 348 343 337 334 332 326 328 331 333 335 335 337 338 342 337 7 0 342 346 279 246 269 195 187 198 155 212 205 166 158 144 143 180 167 205 141 139 159 159 202 182 193 208 329 248
344 345 347 344 342 337 328 326 327 324 326 330 331 333 335 340 251 339 356 331 267 343 26 255 220 243 125 144 240 166 191 144 105 187 160 221 150 160 162 192 150 217 169 121 110 66 239
343 342 337 339 340 341 338 328 321 324 323 322 325 328 331 334 304 260 225 218 313 153 12 210 189 145 150 169 138 167 144 98 169 165 136 231 165 165 173 213 175 208 102 97 90 95 12
340 337 338 334 335 333 336 335 332 322 317 323 317 322 326 333 280 253 209 144 94 51 246 201 147 178 142 192 177 137 143 60 134 109 50 101 39 178 184 75 67 139 75 52 55 86 320
336 335 334 333 331 330 331 333 332 334 322 317 315 314 312 311 277 207 167 99 53 169 284 202 195 173 182 182 190 175 166 170 162 127 205 84 207 156 139 94 51 92 89 319 338 12 228
336 334 331 332 332 330 327 326 327 330 332 324 308 307 302 293 269 224 173 58 194 228 233 52 137 111 189 160 217 171 145 201 224 116 119 165 276 170 178 191 176 179 167 169 219 207 264
333 334 332 333 329 328 328 327 325 326 328 332 327 311 281 284 245 211 125 196 201 201 177 152 54 171 218 209 170 157 204 213 196 179 181 157 257 76 69 133 135 189 191 161 106 61 47
333 335 330 325 330 327 327 327 326 325 327 326 323 285 260 268 208 211 207 229 217 211 140 147 200 172 196 190 171 180 182 211 204 186 120 199 119 294 159 129 46 167 158 85 7 187 247
326 325 327 323 324 329 328 328 326 327 327 327 295 255 241 187 154 162 225 219 224 237 170 168 205 204 214 185 185 208 211 266 177 143 124 141 115 181 130 207 175 145 190 93 134 162 182
317 320 321 323 320 322 327 327 330 327 332 323 286 258 195 160 170 182 227 186 186 206 203 249 228 197 187 185 191 213 216 239 159 147 164 191 125 171 195 227 168 174 185 163 148 210 187
315 314 315 313 316 320 320 325 327 330 328 318 265 267 216 219 215 219 271 243 223 171 186 198 219 201 181 188 213 203 204 354 165 163 165 181 195 115 6 345 325 207 196 148 114 94 200
310 308 310 312 312 311 315 321 324 326 329 323 278 271 235 195 256 265 232 231 236 232 226 176 197 140 151 207 246 229 216 135 194 191 171 128 169 182 203 174 131 189 188 176 154 160 161
305 304 304 305 310 308 308 314 319 322 324 323 260 265 237 277 246 256 270 254 227 232 224 205 199 201 170 202 196 214 153 93 14 185 130 177 207 161 229 160 157 183 171 186 204 210 193
306 306 305 302 301 304 303 307 311 318 321 294 271 276 348 319 294 275 262 239 248 243 168 214 186 203 203 222 203 198 141 184 194 178 168 218 180 127 253 196 209 233 225 209 219 230 242
299 299 300 300 299 297 299 301 305 310 317 286 289 271 239 262 285 285 277 261 264 255 249 238 217 195 204 236 181 28 144 126 175 167 184 163 136 145 253 135 167 275 237 200 220 208 219
295 295 293 294 294 295 292 294 297 302 299 291 288 298 227 277 260 252 263 290 297 287 258 236 179 192 188 119 109 63 57 59 60 21 153 156 146 139 162 126 252 245 191 192 219 239 210
289 288 288 290 290 289 292 289 290 291 291 292 289 285 249 254 275 273 271 274 282 297 289 250 224 185 144 102 99 106 275 139 216 16 334 332 145 159 171 205 318 286 206 170 179 264 221
288 286 284 282 283 284 284 287 283 283 288 284 282 272 254 265 249 253 264 269 274 305 289 242 48 190 148 128 146 200 212 183 206 188 11 18 13 155 158 206 228 242 173 166 141 285 218
285 285 283 282 278 279 279 280 284 280 280 279 280 267 271 262 249 239 256 267 182 243 272 313 197 208 63 158 182 172 220 163 180 170 169 152 188 212 200 230 272 224 159 150 137 244 157
284 282 279 278 276 276 275 277 277 277 276 279 280 266 251 274 260 233 237 228 221 200 262 304 239 270 107 189 192 187 173 204 158 164 175 174 168 189 193 216 252 140 76 187 197 56 136
283 280 277 275 275 272 272 273 274 275 273 277 276 274 258 263 262 225 246 256 247 245 181 221 287 302 186 173 189 128 170 139 154 217 207 209 190 178 190 211 147 185 196 145 132 142 172